[Date Prev][Date Next][Thread Prev][Thread Next][Date Index][Thread Index]

[jamsat-news:1465] jas2info #222



========================   最新情報   ==============================

        Last updated :Sat.21APR2001  15:20 (JST) #222
        
====================================================================
   
  1)アマチュア通信衛星情報、FOシリーズの軌道要素、テレメトリ、QSOの
   状況等をまとめてみました.
   
   FO−29の2001年4月20日(金)の10:41(JST)のパスでは
  JARLのホームページのとうりアナログ運用でした。観測したテレメトリーと
  分析結果を掲載しておきます.

AS23079C1   20APR2001
10:42-10:53(JST)
Freq.435.801-.790MHz

                                                      BO 8A B2 AA AE B3 AC 
HI HI AE C7 88 55 00 D4 05 3E 09 73 8D 82 5B 5F 91 8F B0 89 B1 A9 AE B3 AC
HI HI AE C7 88 55 00 D4 05 3E 09 73 8D 84 58 60 92 91 B0 5E B1 A9 AE B3 AC 
HI HI AE C7 88 55 00 D4 05 3E 09 73 8D 86 55 60 91 90 B0 9F B1 A9 AE B3 AC 
HI HI AE C7 88 55 00 D4 05 3E 09 73 8D 88 54 60 91 8F B0 7E B1 A9 AE B3 AC 
HI HI AE C7 88 55 00 D4 05 3E 09 73 8D 8A 53 60 91 8F B0 75 B1 A9 AE B3 AC 
HI HI AE C7 88 55 00 D4 05 3E 09 73 8F 8B 56 60 91 8F B0 80 B1 A9 AE B3 AC 
HI HI AE C7 88 55 00 D4 05 3E 09 73 90 8D 5B 60 91 8F B0 83 B1 A9 AE B3 AC  
HI HI AE C7 88 55 00 D4 05 3E 09 73 95 90 5E 60 91 90 B0 87 B0 A8 AE B2 AC 
HI HI AE C7 88 55 00 D4 05 3E 09 73 97 91 60 60 91 90 B0 83 B0 A8 AE B2 AC 
HI HI AE C7 88 55 00 D4 05 3E 09 73 9A 91 60 60 92 90 B0 66 B0 A8 AE B2 AC 
HI HI AE C7 88 55 00 D4 05 3E 09 73 9C 91 5F 60 92 90 B0 68 B0 A8 AE B2 AE
HI HI AE C7 88 55 00 D4 05 3E 09 73 9F 90 5B 60 92 90 B0 8B AF A8 AE B2 AC 
HI HI AE C7 88 55 00 D4 05 3E 09 73 A2 90 5C 60 92 90 B0 A6 AF A8 AE B1 AC 
HI HI AE C7 88 55 00 D4 05 3E 09 73 A4 90 5B 60 92 90 B0 7B AF A8 AE B1 AC 
HI HI AE C7 88 55 00 D4 05 3E 09 73 A7 8D 5C 60 92 91 B0 98 AF A8 AE B1 AC 
HI HI AE C7 88 55 00 D4 05 3E 09 73 A9 8B 5C 60 92 91 B0 9F AF A8 AE B1 AC  

AS23025C1  16APR2001
10:55-11:01(JST)
Freq.435.801-.790MHz

HI HI AE C7 88 55 00 D4 9F DC 09 01 82 7A 6D 60 92 90 B0 62 B0 AC AE B1 AE 
HI HI AE C7 88 55 00 D4 9F DC 09 01 8E 78 67 60 92 90 B0 85 B0 AC AE B1 AE 
HI HI AE C7 88 55 00 D4 9F DC 09 01 97 72 66 60 92 90 B0 7D B0 AC AE B1 AE 
HI HI AE C7 88 55 00 D4 9F DC 09 01 A1 6A 6C 60 92 91 B0 86 AF AB AE B0 AE 
HI HI AE C7 88 55 00 D4 9F DC 09 01 A6 5F 71 60 92 91 B0 88 B0 AB AE B0 AE 
HI HI AE C7 88 55 00 D4 9F DC 09 01 A6 52 78 60 93 91 B0 70 B0 AB AE B0 AE 
HI HI AE C7 88 55 00 D4 9F DC 09 01 A2 46 7F 60 93 91 B0 73 AF AB AE B1 AE 
HI HI AE C7 88 55 00 D4 9F DC 09
 
 ------------------------ FO-29の軌道要素 ------------------------------        
 
  ■ 軌道要素1:「jamsat−keps:1094」より         
          SB KEPS @ AMSAT  $ORB01109.N
          2Line Orbital Elements 01109.AMSAT

HR AMSAT ORBITAL ELEMENTS FOR AMATEUR SATELLITES IN NASA FORMAT
FROM WA5QGD FORT WORTH,TX April 19, 2001
SEND SUBSCRIBE/UNSUBSCRIBE TO majordomo@amsat.org ONLY
BID: ORB01109.N

 DECODE 2-LINE ELSETS WITH THE FOLLOWING KEY:
 1 AAAAAU 00  0  0 BBBBB.BBBBBBBB  .CCCCCCCC  00000-0  00000-0 0  DDDZ
 2 AAAAA EEE.EEEE FFF.FFFF GGGGGGG HHH.HHHH III.IIII JJ.JJJJJJJJKKKKKZ
 KEY: A-CATALOGNUM B-EPOCHTIME C-DECAY D-ELSETNUM E-INCLINATION F-RAAN
 G-ECCENTRICITY H-ARGPERIGEE I-MNANOM J-MNMOTION K-ORBITNUM Z-CHECKSUM

FO-29
1 24278U 96046B   01109.17875802 -.00000078  00000-0 -45349-4 0  4077
2 24278  98.5540 342.3897 0351529 154.6333 207.2533 13.52767990230660

 ■ 軌道要素2:「jamsat−keps:1095」より                     

        SB KEPS @ AMSAT  $ORB01109.O
        Orbital Elements  01109.OSCAR

HR AMSAT ORBITAL ELEMENTS FOR OSCAR SATELLITES
FROM WA5QGD FORT WORTH,TX April 19, 2001
SEND SUBSCRIBE/UNSUBSCRIBE TO majordomo@amsat.org ONLY
BID: ORB01109.O
TO ALL RADIO AMATEURS BT
 
Satellite: FO-29
Catalog number: 24278
Epoch time:      01109.17875802
Element set:     407
Inclination:       98.5540 deg
RA of node:       342.3897 deg
Eccentricity:    0.0351529
Arg of perigee:   154.6333 deg
Mean anomaly:     207.2533 deg
Mean motion:   13.52767990 rev/day
Decay rate:       -7.8e-07 rev/day^2
Epoch rev:           23066
Checksum:              326

-------------------  FO-29(JAS-2)のテレメトリに関する情報  ---------------------- 
 
2)上記テレメトリー4月20日(金)のテレメトリ最終行を分析しておきます.

AS23079C1   20APR2001
10:42-10:53(JST)
Freq.435.801-.790MHz

HI HI AE C7 88 55 00 D4 05 3E 09 73 A9 8B 5C 60 92 91 B0 9F AF A8 AE B1 AC  

テレメトリ   内 容       換算算値 単 位  
3C	磁気センサーZ軸=	82843.1	[nT]
3D	磁気センサX軸	=	68137.2	[nT]
4A	太陽電池発生電流=	  902.0	[mA]
4B	B充放電電流	=	 -118.4	[mA]
4C	B端子電圧	=	   15.7	[V]
4D	B中間端子電圧	=	    7.0	[V]
5A	バス電圧	=	   17.3	[V]
5B	JTA送信電力	=	  935.4	[mW]
5C 	構体温度1	=	   13.9	[℃]
5D	構体温度2	=	   16.6	[℃]
6A	構体温度3	=	   14.3	[℃]
6B	構体温度4	=	   13.1	[℃]
6C	Bセル温度	=	   15.1	[℃]
   	
 ===========================  FO-29(ふじ3号)のQSO情報等 ======================
   
 3)[jamsat-bb:

 ===============================================================================
   4)JARL のホームページに運用予定が記載されていましたのでご紹介します.
       ( http://www.jarl.or.jp/Japanese/3_Fuji/new/uy.htm )

        ■ ふじ3号/FOー29/JAS-2 ■  
   
     *** 運用予定について ***

     4月2日 〜 7月2日 アナログ系運用

  *なお,運用予定は都合により変更することがありますので予めご了承願います。

 照会先 : lab@jarl.or.jp

 最新の情報はテレホンサービス(03−3942−1000)をお聞きください。  
 以後の運用につきましては平成13年7月上旬にお知らせ致します。    
    
-----------------------    FO−20(JAS-1b)道要素   -------------------------
  5)
  ■ 軌道要素1 :出典はFO-29「ふじ3号」に同じ.
  
FO-20
1 20480U 90013C   01109.23246798 -.00000019  00000-0  22019-4 0  3059
2 20480  99.0657 188.6670 0540931  82.6406 283.5809 12.83292140524532
 
  ■ 軌道要素2 :出典はFO−29「ふじ3号」に同じ.
               
Satellite: FO-20
Catalog number: 20480
Epoch time:      01109.23246798
Element set:     305
Inclination:       99.0657 deg
RA of node:       188.6670 deg
Eccentricity:    0.0540931
Arg of perigee:    82.6406 deg
Mean anomaly:     283.5809 deg
Mean motion:   12.83292140 rev/day
Decay rate:       -1.9e-07 rev/day^2
Epoch rev:           52453
Checksum:              304
 
 --------------------------------------------------------------------------------
 
         ■ ふじ2号/FO−20/JAS-1b ■      
            
          「ふじ2号」 現況                                                                                  
             
   JAS-1b(ふじ2号)のCWテレメトリ信号に,1997年10月12日12時(JST)の
 日本上空通過時,3桁の数字が繰り返されるはずが3個の長音の繰り返しとなっているという
 異常が発見されました。この不具合は次の通過時からは回復していましたが13日15時20分の
 通過時に再び観測されました。現在はA0の送信が続いています。衛星のアナログ系中継モード
 動作は異常が無く,正常時のテレメトリ内容からは衛星の動作に異常は認められません。従って,
 直ちに衛星のミッションに影響することは無いと予想されますので,当面はアナログ系中継
 モードを継続します。衛星は既に打ち上げてから7年8ヶ月を経ておりますので,今後は監視を
 強化する予定です。アマチュア各位のレポートをお待ちします。
 -------------------------------------------------------------------------------- 
  1997年10月14日 00時35分 確認のテレメトリ音 151 KB (A0) 
  1997年10月14日 11時10分 確認のテレメトリ音 216 KB (異常キーイング) 

  以上 JARLのホ−ムページの http://www.jarl.or.jp/Japanese/3_Fuji/new/fuji.htm

===================== FO-20 ふじ2号 のテレメトリ観測結果 ====================

   12月22日(金)の12:21(JST)のパスの観測結果では以前観測した
 単一周波数のドップラー効果で周波数がずれていくのみの状態に戻っておりました。
                                         
   =============   JAS-2 (ふじ3号)と現在までの情報   ===========
  
  A.電話によるふじ3号の運用情報
      社団法人日本アマチュア連盟によるサービス
           TEL .   03− 3942 − 1000
  B.アマチュア無線FAXサービス
      JARLによるふじ3号の軌道情報(オービットカレンダー)
         FAX No.  03− 3233 −0055
  C.WWWブラウザで情報を簡単に見れる人のためにJAS−2
     ふじ3号の衛星としての運用されるまでの名前)の概要、打ち上げ
     までの状況、運用中における状況を説明したホームページを紹介し
     ておきます.
     社団法人日本アマチュア無線連盟(JARL)のホームページ

          http://www.jarl.or.jp/Japanese/3_Fuji/jasmenu.htm
 
     宇宙開発事業団(NASDA)ホームページ 
          http://www.nasda.go.jp/
         打上げ衛星 :地球観測プラットフォーム技術衛星(ADEOS) 
                       アマチュア衛星3号(JAS-2)
          http://yyy.tksc.nasda.go.jp/Home/Press/Press-j/jas-2_j.html        

  D.JAMSATによる軌道情報の活用
        JAMSATのホームページまたはjamsat−kepsの軌道要素より
      衛星の軌道情報を得る.
     JAMSATホームページ
               URL    http://www.jamsat.or.jp
       上記ホームページでは各地で行われるアマチュア通信衛星に関する
      ミューティングのお知らせや世界のアマチュア衛星に関する情報が
      満載されています.
 ========================================================================  
     JAMSATのメンバーのご協力によりJH6MME(高山 秀造)が
    執筆・編集を担当しております.ご指摘の意見、疑問やこのようにしたら
    というアイデアがありましたら小さなことでもかまいませんので気軽に下
    記アドレスまでご連絡ください.jamsat−newsからjas2
    infoへの転載をJH4PHW局坂井さんに担当して頂いております.  
                  E-mail : jh6mme@jamsat.or.jp : jh4phw@jamsat.or.jp
 ===============================   END  ===============================